Year,Month,Day,Hour,Minute,Value (Times are PST for temperature in C)
2015,05,23,00,00,12.20
2015,05,23,00,01,12.20
2015,05,23,00,02,12.20
2015,05,23,00,03,12.20
2015,05,23,00,04,12.20
2015,05,23,00,05,12.20
2015,05,23,00,06,12.20
2015,05,23,00,07,12.20
2015,05,23,00,08,12.20
2015,05,23,00,09,12.10
2015,05,23,00,10,12.10
2015,05,23,00,11,12.10
2015,05,23,00,12,12.10
2015,05,23,00,13,12.10
2015,05,23,00,14,12.10
2015,05,23,00,15,12.10
2015,05,23,00,16,12.10
2015,05,23,00,17,12.10
2015,05,23,00,18,12.10
2015,05,23,00,19,12.10
2015,05,23,00,20,12.10
2015,05,23,00,21,12.10
2015,05,23,00,22,12.10
2015,05,23,00,23,12.10
2015,05,23,00,24,12.10
2015,05,23,00,25,12.10
2015,05,23,00,26,12.10
2015,05,23,00,27,12.10
2015,05,23,00,28,12.20
2015,05,23,00,29,12.20
2015,05,23,00,30,12.20
2015,05,23,00,31,12.20
2015,05,23,00,32,12.20
2015,05,23,00,33,12.20
2015,05,23,00,34,12.20
2015,05,23,00,35,12.20
2015,05,23,00,36,12.20
2015,05,23,00,37,12.20
2015,05,23,00,38,12.20
2015,05,23,00,39,12.20
2015,05,23,00,40,12.20
2015,05,23,00,41,12.20
2015,05,23,00,42,12.20
2015,05,23,00,43,12.20
2015,05,23,00,44,12.20
2015,05,23,00,45,12.20
2015,05,23,00,46,12.20
2015,05,23,00,47,12.20
2015,05,23,00,48,12.20
2015,05,23,00,49,12.20
2015,05,23,00,50,12.20
2015,05,23,00,51,12.20
2015,05,23,00,52,12.20
2015,05,23,00,53,12.20
2015,05,23,00,54,12.20
2015,05,23,00,55,12.20
2015,05,23,00,56,12.20
2015,05,23,00,57,12.20
2015,05,23,00,58,12.20
2015,05,23,00,59,12.30
2015,05,23,01,00,12.20
2015,05,23,01,01,12.20
2015,05,23,01,02,12.20
2015,05,23,01,03,12.20
2015,05,23,01,04,12.20
2015,05,23,01,05,12.20
2015,05,23,01,06,12.20
2015,05,23,01,07,12.20
2015,05,23,01,08,12.20
2015,05,23,01,09,12.20
2015,05,23,01,10,12.20
2015,05,23,01,11,12.20
2015,05,23,01,12,12.20
2015,05,23,01,13,12.20
2015,05,23,01,14,12.20
2015,05,23,01,15,12.20
2015,05,23,01,16,12.20
2015,05,23,01,17,12.20
2015,05,23,01,18,12.20
2015,05,23,01,19,12.20
2015,05,23,01,20,12.20
2015,05,23,01,21,12.10
2015,05,23,01,22,12.10
2015,05,23,01,23,12.10
2015,05,23,01,24,12.10
2015,05,23,01,25,12.10
2015,05,23,01,26,12.10
2015,05,23,01,27,12.10
2015,05,23,01,28,12.10
2015,05,23,01,29,12.10
2015,05,23,01,30,12.10
2015,05,23,01,31,12.10
2015,05,23,01,32,12.10
2015,05,23,01,33,12.10
2015,05,23,01,34,12.00
2015,05,23,01,35,12.00
2015,05,23,01,36,12.00
2015,05,23,01,37,12.00
2015,05,23,01,38,12.00
2015,05,23,01,39,12.00
2015,05,23,01,40,12.00
2015,05,23,01,41,12.00
2015,05,23,01,42,12.00
2015,05,23,01,43,12.00
2015,05,23,01,44,12.00
2015,05,23,01,45,12.00
2015,05,23,01,46,12.00
2015,05,23,06,17,10.30
2015,05,23,06,18,10.30
2015,05,23,06,19,10.40
2015,05,23,06,20,10.40
2015,05,23,06,21,10.40
2015,05,23,06,22,10.50
2015,05,23,06,23,10.50
2015,05,23,06,24,10.60
2015,05,23,06,25,10.60
2015,05,23,06,26,10.70
2015,05,23,06,27,10.70
2015,05,23,06,28,10.70
2015,05,23,06,29,10.70
2015,05,23,06,30,10.80
2015,05,23,06,31,10.80
2015,05,23,06,32,10.80
2015,05,23,06,33,10.80
2015,05,23,06,34,10.90
2015,05,23,06,35,10.90
2015,05,23,06,36,10.90
2015,05,23,06,37,10.90
2015,05,23,06,38,11.00
2015,05,23,06,39,11.00
2015,05,23,06,40,11.10
2015,05,23,06,41,11.10
2015,05,23,06,42,11.20
2015,05,23,06,43,11.20
2015,05,23,06,44,11.30
2015,05,23,06,45,11.40
2015,05,23,06,46,11.40
2015,05,23,06,47,11.50
2015,05,23,06,48,11.50
2015,05,23,06,49,11.60
2015,05,23,06,50,11.60
2015,05,23,06,51,11.60
2015,05,23,06,52,11.70
2015,05,23,06,53,11.70
2015,05,23,06,54,11.80
2015,05,23,06,55,11.80
2015,05,23,06,56,11.90
2015,05,23,06,57,12.00
2015,05,23,06,58,12.10
2015,05,23,06,59,12.20
2015,05,23,07,00,12.30
2015,05,23,07,01,12.30
2015,05,23,07,02,12.40
2015,05,23,07,03,12.50
2015,05,23,07,04,12.60
2015,05,23,07,05,12.70
2015,05,23,07,06,12.80
2015,05,23,07,07,12.80
2015,05,23,07,08,12.90
2015,05,23,07,09,13.00
2015,05,23,07,10,13.00
2015,05,23,07,11,13.10
2015,05,23,07,12,13.20
2015,05,23,07,13,13.20
2015,05,23,07,14,13.30
2015,05,23,07,15,13.40
2015,05,23,07,16,13.50
2015,05,23,07,17,13.60
2015,05,23,07,18,13.70
2015,05,23,07,19,13.80
2015,05,23,07,20,13.80
2015,05,23,07,21,13.90
2015,05,23,07,22,14.00
2015,05,23,07,23,14.00
2015,05,23,07,24,14.10
2015,05,23,07,25,14.10
2015,05,23,07,26,14.20
2015,05,23,07,27,14.20
2015,05,23,07,28,14.30
2015,05,23,07,29,14.30
2015,05,23,07,30,14.20
2015,05,23,07,31,14.20
2015,05,23,07,32,14.10
2015,05,23,07,33,14.10
2015,05,23,07,34,14.00
2015,05,23,07,35,13.90
2015,05,23,07,36,13.90
2015,05,23,07,37,13.80
2015,05,23,07,38,13.80
2015,05,23,07,39,13.80
2015,05,23,07,40,13.70
2015,05,23,07,41,13.70
2015,05,23,07,42,13.60
2015,05,23,07,43,13.60
2015,05,23,07,44,13.50
2015,05,23,07,45,13.50
2015,05,23,07,46,13.40
2015,05,23,07,47,13.40
2015,05,23,07,48,13.40
2015,05,23,07,49,13.30
2015,05,23,07,50,13.30
2015,05,23,07,51,13.30
2015,05,23,07,52,13.30
2015,05,23,07,53,13.30
2015,05,23,07,54,13.20
2015,05,23,07,55,13.20
2015,05,23,07,56,13.20
2015,05,23,07,57,13.20
2015,05,23,07,58,13.20
2015,05,23,07,59,13.20
2015,05,23,08,00,13.10
2015,05,23,08,01,13.10
2015,05,23,08,02,13.10
2015,05,23,08,03,13.00
2015,05,23,08,04,13.00
2015,05,23,08,05,13.00
2015,05,23,08,06,12.90
2015,05,23,08,07,12.90
2015,05,23,08,08,12.90
2015,05,23,08,09,12.90
2015,05,23,08,10,12.90
2015,05,23,08,11,12.90
2015,05,23,08,12,12.90
2015,05,23,08,13,13.00
2015,05,23,08,14,13.00
2015,05,23,08,15,13.10
2015,05,23,08,16,13.10
2015,05,23,08,17,13.20
2015,05,23,08,18,13.30
2015,05,23,08,19,13.30
2015,05,23,08,20,13.40
2015,05,23,08,21,13.50
2015,05,23,08,22,13.60
2015,05,23,08,23,13.60
2015,05,23,08,24,13.70
2015,05,23,08,25,13.70
2015,05,23,08,26,13.80
2015,05,23,08,27,13.80
2015,05,23,08,28,13.80
2015,05,23,08,29,13.80
2015,05,23,08,30,13.80
2015,05,23,08,31,13.80
2015,05,23,08,32,13.70
2015,05,23,08,33,13.70
2015,05,23,08,34,13.70
2015,05,23,08,35,13.60
2015,05,23,08,36,13.60
2015,05,23,08,37,13.60
2015,05,23,08,38,13.60
2015,05,23,08,39,13.60
2015,05,23,08,40,13.70
2015,05,23,08,41,13.70
2015,05,23,08,42,13.80
2015,05,23,08,43,13.80
2015,05,23,08,44,13.90
2015,05,23,08,45,14.00
2015,05,23,08,46,14.10
2015,05,23,08,47,14.10
2015,05,23,08,48,14.20
2015,05,23,08,49,14.20
2015,05,23,08,50,14.30
2015,05,23,08,51,14.30
2015,05,23,08,52,14.40
2015,05,23,08,53,14.40
2015,05,23,08,54,14.40
2015,05,23,08,55,14.40
2015,05,23,08,56,14.40
2015,05,23,08,57,14.40
2015,05,23,08,58,14.40
2015,05,23,08,59,14.40
2015,05,23,09,00,14.40
2015,05,23,09,01,14.30
2015,05,23,09,02,14.30
2015,05,23,09,03,14.30
2015,05,23,09,04,14.20
2015,05,23,09,05,14.20
2015,05,23,09,06,14.30
2015,05,23,09,07,14.30
2015,05,23,09,08,14.30
2015,05,23,09,09,14.30
2015,05,23,09,10,14.40
2015,05,23,09,11,14.50
2015,05,23,09,12,14.50
2015,05,23,09,13,14.60
2015,05,23,09,14,14.60
2015,05,23,09,15,14.60
2015,05,23,09,16,14.60
2015,05,23,09,17,14.50
2015,05,23,09,18,14.60
2015,05,23,09,19,14.60
2015,05,23,09,20,14.60
2015,05,23,09,21,14.60
2015,05,23,09,22,14.70
2015,05,23,09,23,14.70
2015,05,23,09,24,14.70
2015,05,23,09,25,14.70
2015,05,23,09,26,14.70
2015,05,23,09,27,14.70
2015,05,23,09,28,14.80
2015,05,23,09,29,14.80
2015,05,23,09,30,14.80
2015,05,23,09,31,14.70
2015,05,23,09,32,14.70
2015,05,23,09,33,14.70
2015,05,23,09,34,14.60
2015,05,23,09,35,14.50
2015,05,23,09,36,14.50
2015,05,23,09,37,14.40
2015,05,23,09,38,14.30
2015,05,23,09,39,14.30
2015,05,23,09,40,14.30
2015,05,23,09,41,14.30
2015,05,23,09,42,14.30
2015,05,23,09,43,14.40
2015,05,23,09,44,14.40
2015,05,23,09,45,14.50
2015,05,23,09,46,14.40
2015,05,23,09,47,14.40
2015,05,23,09,48,14.40
2015,05,23,09,49,14.30
2015,05,23,09,50,14.30
2015,05,23,09,51,14.30
2015,05,23,09,52,14.30
2015,05,23,09,53,14.30
2015,05,23,09,54,14.30
2015,05,23,09,55,14.20
2015,05,23,09,56,14.20
2015,05,23,09,57,14.20
2015,05,23,09,58,14.20
2015,05,23,09,59,14.20
2015,05,23,10,00,14.20
2015,05,23,10,01,14.20
2015,05,23,10,02,14.20
2015,05,23,10,03,14.20
2015,05,23,10,04,14.20
2015,05,23,10,05,14.20
2015,05,23,10,06,14.20
2015,05,23,10,07,14.20
2015,05,23,10,08,14.30
2015,05,23,10,09,14.30
2015,05,23,10,10,14.30
2015,05,23,10,11,14.40
2015,05,23,10,12,14.50
2015,05,23,10,13,14.50
2015,05,23,10,14,14.60
2015,05,23,10,15,14.60
2015,05,23,10,16,14.60
2015,05,23,10,17,14.60
2015,05,23,10,18,14.70
2015,05,23,10,19,14.70
2015,05,23,10,20,14.70
2015,05,23,10,21,14.70
2015,05,23,10,22,14.60
2015,05,23,10,23,14.60
2015,05,23,10,24,14.60
2015,05,23,10,25,14.60
2015,05,23,10,26,14.50
2015,05,23,10,27,14.50
2015,05,23,10,28,14.50
2015,05,23,10,29,14.50
2015,05,23,10,30,14.60
2015,05,23,10,31,14.60
2015,05,23,10,32,14.60
2015,05,23,10,33,14.70
2015,05,23,10,34,14.70
2015,05,23,10,35,14.80
2015,05,23,10,36,14.80
2015,05,23,10,37,14.90
2015,05,23,10,38,15.00
2015,05,23,10,39,15.00
2015,05,23,10,40,15.10
2015,05,23,10,41,15.10
2015,05,23,10,42,15.10
2015,05,23,10,43,15.10
2015,05,23,10,44,15.10
2015,05,23,10,45,15.10
2015,05,23,10,46,15.10
2015,05,23,10,47,15.10
2015,05,23,10,48,15.20
2015,05,23,10,49,15.20
2015,05,23,10,50,15.20
2015,05,23,10,51,15.10
2015,05,23,10,52,15.00
2015,05,23,10,53,15.10
2015,05,23,10,54,15.10
2015,05,23,10,55,15.10
2015,05,23,10,56,15.10
2015,05,23,10,57,15.00
2015,05,23,10,58,14.90
2015,05,23,10,59,14.90
2015,05,23,11,00,14.80
2015,05,23,11,01,14.80
2015,05,23,11,02,14.80
2015,05,23,11,03,14.80
2015,05,23,11,04,14.70
2015,05,23,11,05,14.60
2015,05,23,11,06,14.60
2015,05,23,11,07,14.60
2015,05,23,11,08,14.50
2015,05,23,11,09,14.50
2015,05,23,11,10,14.60
2015,05,23,11,11,14.60
2015,05,23,11,12,14.60
2015,05,23,11,13,14.50
2015,05,23,11,14,14.50
2015,05,23,11,15,14.60
2015,05,23,11,16,14.60
2015,05,23,11,17,14.70
2015,05,23,11,18,14.60
2015,05,23,11,19,14.70
2015,05,23,11,20,14.70
2015,05,23,11,21,14.80
2015,05,23,11,22,14.80
2015,05,23,11,23,14.80
2015,05,23,11,24,14.80
2015,05,23,11,25,14.80
2015,05,23,11,26,14.80
2015,05,23,11,27,14.80
2015,05,23,11,28,14.80
2015,05,23,11,29,14.70
2015,05,23,11,30,14.70
2015,05,23,11,31,14.70
2015,05,23,11,32,14.70
2015,05,23,11,33,14.70
2015,05,23,11,34,14.70
2015,05,23,11,35,14.70
2015,05,23,11,36,14.80
2015,05,23,11,37,14.80
2015,05,23,11,38,14.90
2015,05,23,11,39,15.00
2015,05,23,11,40,15.10
2015,05,23,11,41,15.10
2015,05,23,11,42,15.10
2015,05,23,11,43,15.10
2015,05,23,11,44,15.20
2015,05,23,11,45,15.20
2015,05,23,11,46,15.20
2015,05,23,11,47,15.20
2015,05,23,11,48,15.10
2015,05,23,11,49,15.00
2015,05,23,11,50,15.10
2015,05,23,11,51,15.10
2015,05,23,11,52,15.20
2015,05,23,11,53,15.20
2015,05,23,11,54,15.20
2015,05,23,11,55,15.20
2015,05,23,11,56,15.20
2015,05,23,11,57,15.20
2015,05,23,11,58,15.10
2015,05,23,11,59,15.10
2015,05,23,12,00,15.20
2015,05,23,12,01,15.20
2015,05,23,12,02,15.20
2015,05,23,12,03,15.30
2015,05,23,12,04,15.30
2015,05,23,12,05,15.30
2015,05,23,12,06,15.30
2015,05,23,12,07,15.30
2015,05,23,12,08,15.40
2015,05,23,12,09,15.40
2015,05,23,12,10,15.40
2015,05,23,12,11,15.40
2015,05,23,12,12,15.40
2015,05,23,12,13,15.40
2015,05,23,12,14,15.50
2015,05,23,12,15,15.60
2015,05,23,12,16,15.70
2015,05,23,12,17,15.80
2015,05,23,12,18,15.80
2015,05,23,12,19,15.90
2015,05,23,12,20,16.00
2015,05,23,12,21,16.10
2015,05,23,12,22,16.10
2015,05,23,12,23,16.20
2015,05,23,12,24,16.10
2015,05,23,12,25,16.00
2015,05,23,12,26,15.90
2015,05,23,12,27,15.80
2015,05,23,12,28,15.70
2015,05,23,12,29,15.60
2015,05,23,12,30,15.60
2015,05,23,12,31,15.50
2015,05,23,12,32,15.40
2015,05,23,12,33,15.40
2015,05,23,12,34,15.40
2015,05,23,12,35,15.40
2015,05,23,12,36,15.40
2015,05,23,12,37,15.40
2015,05,23,12,38,15.40
2015,05,23,12,39,15.50
2015,05,23,12,40,15.50
2015,05,23,12,41,15.50
2015,05,23,12,42,15.60
2015,05,23,12,43,15.60
2015,05,23,12,44,15.60
2015,05,23,12,45,15.60
2015,05,23,12,46,15.50
2015,05,23,12,47,15.60
2015,05,23,12,48,15.60
2015,05,23,12,49,15.60
2015,05,23,12,50,15.60
2015,05,23,12,51,15.60
2015,05,23,12,52,15.60
2015,05,23,12,53,15.60
2015,05,23,12,54,15.50
2015,05,23,12,55,15.40
2015,05,23,12,56,15.40
2015,05,23,12,57,15.30
2015,05,23,12,58,15.30
2015,05,23,12,59,15.20
2015,05,23,13,00,15.20
2015,05,23,13,01,15.30
2015,05,23,13,02,15.30
2015,05,23,13,03,15.40
2015,05,23,13,04,15.30
2015,05,23,13,05,15.30
2015,05,23,13,06,15.30
2015,05,23,13,07,15.40
2015,05,23,13,08,15.40
2015,05,23,13,09,15.40
2015,05,23,13,10,15.30
2015,05,23,13,11,15.30
2015,05,23,13,12,15.30
2015,05,23,13,13,15.30
2015,05,23,13,14,15.30
2015,05,23,13,15,15.30
2015,05,23,13,16,15.30
2015,05,23,13,17,15.30
2015,05,23,13,18,15.40
2015,05,23,13,19,15.40
2015,05,23,13,20,15.50
2015,05,23,13,21,15.50
2015,05,23,13,22,15.60
2015,05,23,13,23,15.60
2015,05,23,13,24,15.60
2015,05,23,13,25,15.50
2015,05,23,13,26,15.40
2015,05,23,13,27,15.40
2015,05,23,13,28,15.30
2015,05,23,13,29,15.40
2015,05,23,13,30,15.40
2015,05,23,13,31,15.40
2015,05,23,13,32,15.40
2015,05,23,13,33,15.40
2015,05,23,13,34,15.50
2015,05,23,13,35,15.50
2015,05,23,13,36,15.60
2015,05,23,13,37,15.60
2015,05,23,13,38,15.70
2015,05,23,13,39,15.70
2015,05,23,13,40,15.60
2015,05,23,13,41,15.60
2015,05,23,13,42,15.70
2015,05,23,13,43,15.70
2015,05,23,13,44,15.80
2015,05,23,13,45,15.80
2015,05,23,13,46,15.80
2015,05,23,13,47,15.80
2015,05,23,13,48,15.70
2015,05,23,13,49,15.70
2015,05,23,13,50,15.80
2015,05,23,13,51,15.80
2015,05,23,13,52,15.70
2015,05,23,13,53,15.70
2015,05,23,13,54,15.70
2015,05,23,13,55,15.70
2015,05,23,13,56,15.80
2015,05,23,13,57,15.80
2015,05,23,13,58,15.90
2015,05,23,13,59,15.90
2015,05,23,14,00,15.90
2015,05,23,14,01,15.90
2015,05,23,14,02,16.00
2015,05,23,14,03,16.10
2015,05,23,14,04,16.10
2015,05,23,14,05,16.30
2015,05,23,14,06,16.40
2015,05,23,14,07,16.50
2015,05,23,14,08,16.50
2015,05,23,14,09,16.50
2015,05,23,14,10,16.60
2015,05,23,14,11,16.70
2015,05,23,14,12,16.80
2015,05,23,14,13,16.80
2015,05,23,14,14,16.80
2015,05,23,14,15,16.70
2015,05,23,14,16,16.70
2015,05,23,14,17,16.60
2015,05,23,14,18,16.60
2015,05,23,14,19,16.60
2015,05,23,14,20,16.60
2015,05,23,14,21,16.60
2015,05,23,14,22,16.70
2015,05,23,14,23,16.60
2015,05,23,14,24,16.70
2015,05,23,14,25,16.60
2015,05,23,14,26,16.60
2015,05,23,14,27,16.60
2015,05,23,14,28,16.60
2015,05,23,14,29,16.70
2015,05,23,14,30,16.80
2015,05,23,14,31,16.90
2015,05,23,14,32,16.90
2015,05,23,14,33,16.90
2015,05,23,14,34,17.00
2015,05,23,14,35,17.10
2015,05,23,14,36,17.20
2015,05,23,14,37,17.30
2015,05,23,14,38,17.40
2015,05,23,14,39,17.50
2015,05,23,14,40,17.60
2015,05,23,14,41,17.70
2015,05,23,14,42,17.80
2015,05,23,14,43,17.80
2015,05,23,14,44,17.90
2015,05,23,14,45,17.90
2015,05,23,14,46,17.90
2015,05,23,14,47,17.90
2015,05,23,14,48,17.90
2015,05,23,14,49,17.90
2015,05,23,14,50,17.70
2015,05,23,14,51,17.50
2015,05,23,14,52,17.30
2015,05,23,14,53,17.20
2015,05,23,14,54,17.20
2015,05,23,14,55,17.20
2015,05,23,14,56,17.10
2015,05,23,14,57,17.20
2015,05,23,14,58,17.20
2015,05,23,14,59,17.20
2015,05,23,15,00,17.20
2015,05,23,15,01,17.20
2015,05,23,15,02,17.10
2015,05,23,15,03,17.00
2015,05,23,15,04,16.90
2015,05,23,15,05,16.80
2015,05,23,15,06,16.80
2015,05,23,15,07,16.80
2015,05,23,15,08,16.90
2015,05,23,15,09,17.00
2015,05,23,15,10,17.00
2015,05,23,15,11,17.10
2015,05,23,15,12,17.10
2015,05,23,15,13,17.10
2015,05,23,15,14,17.10
2015,05,23,15,15,17.10
2015,05,23,15,16,17.10
2015,05,23,15,17,17.10
2015,05,23,15,18,17.20
2015,05,23,15,19,17.30
2015,05,23,15,20,17.40
2015,05,23,15,21,17.50
2015,05,23,15,22,17.60
2015,05,23,15,23,17.60
2015,05,23,15,24,17.70
2015,05,23,15,25,17.80
2015,05,23,15,26,17.90
2015,05,23,15,27,17.90
2015,05,23,15,28,17.70
2015,05,23,15,29,17.60
2015,05,23,15,30,17.50
2015,05,23,15,31,17.50
2015,05,23,15,32,17.60
2015,05,23,15,33,17.70
2015,05,23,15,34,17.80
2015,05,23,15,35,17.80
2015,05,23,15,36,17.70
2015,05,23,15,37,17.70
2015,05,23,15,38,17.60
2015,05,23,15,39,17.60
2015,05,23,15,40,17.50
2015,05,23,15,41,17.40
2015,05,23,15,42,17.30
2015,05,23,15,43,17.20
2015,05,23,15,44,17.10
2015,05,23,15,45,17.10
2015,05,23,15,46,17.10
2015,05,23,15,47,17.10
2015,05,23,15,48,17.00
2015,05,23,15,49,17.00
2015,05,23,15,50,16.90
2015,05,23,15,51,16.90
2015,05,23,15,52,16.90
2015,05,23,15,53,16.90
2015,05,23,15,54,16.90
2015,05,23,15,55,16.90
2015,05,23,15,56,16.90
2015,05,23,15,57,16.90
2015,05,23,15,58,16.90
2015,05,23,15,59,17.00
2015,05,23,16,00,17.10
2015,05,23,16,01,17.20
2015,05,23,16,02,17.30
2015,05,23,16,03,17.30
2015,05,23,16,04,17.20
2015,05,23,16,05,17.20
2015,05,23,16,06,17.30
2015,05,23,16,07,17.30
2015,05,23,16,08,17.30
2015,05,23,16,09,17.30
2015,05,23,16,10,17.40
2015,05,23,16,11,17.50
2015,05,23,16,12,17.60
2015,05,23,16,13,17.70
2015,05,23,16,14,17.80
2015,05,23,16,15,17.80
2015,05,23,16,16,17.90
2015,05,23,16,17,17.90
2015,05,23,16,18,17.90
2015,05,23,16,19,17.90
2015,05,23,16,20,17.90
2015,05,23,16,21,17.80
2015,05,23,16,22,17.70
2015,05,23,16,23,17.70
2015,05,23,16,24,17.70
2015,05,23,16,25,17.70
2015,05,23,16,26,17.60
2015,05,23,16,27,17.60
2015,05,23,16,28,17.60
2015,05,23,16,29,17.60
2015,05,23,16,30,17.60
2015,05,23,16,31,17.70
2015,05,23,16,32,17.70
2015,05,23,16,33,17.50
2015,05,23,16,34,17.50
2015,05,23,16,35,17.40
2015,05,23,16,36,17.40
2015,05,23,16,37,17.50
2015,05,23,16,38,17.50
2015,05,23,16,39,17.60
2015,05,23,16,40,17.60
2015,05,23,16,41,17.60
2015,05,23,16,42,17.60
2015,05,23,16,43,17.60
2015,05,23,16,44,17.60
2015,05,23,16,45,17.60
2015,05,23,16,46,17.70
2015,05,23,16,47,17.70
2015,05,23,16,48,17.80
2015,05,23,16,49,17.90
2015,05,23,16,50,18.00
2015,05,23,16,51,18.10
2015,05,23,16,52,18.30
2015,05,23,16,53,18.50
2015,05,23,16,54,18.60
2015,05,23,16,55,18.80
2015,05,23,16,56,18.90
2015,05,23,16,57,19.00
2015,05,23,16,58,19.00
2015,05,23,16,59,18.90
2015,05,23,17,00,18.80
2015,05,23,17,01,18.80
2015,05,23,17,02,18.90
2015,05,23,17,03,18.90
2015,05,23,17,04,18.90
2015,05,23,17,05,18.90
2015,05,23,17,06,19.00
2015,05,23,17,07,19.00
2015,05,23,17,08,18.90
2015,05,23,17,09,18.90
2015,05,23,17,10,18.80
2015,05,23,17,11,18.80
2015,05,23,17,12,18.70
2015,05,23,17,13,18.70
2015,05,23,17,14,18.70
2015,05,23,17,15,18.70
2015,05,23,17,16,18.70
2015,05,23,17,17,18.70
2015,05,23,17,18,18.60
2015,05,23,17,19,18.60
2015,05,23,17,20,18.70
2015,05,23,17,21,18.80
2015,05,23,17,22,18.90
2015,05,23,17,23,18.90
2015,05,23,17,24,19.00
2015,05,23,17,25,19.00
2015,05,23,17,26,19.00
2015,05,23,17,27,19.10
2015,05,23,17,28,19.10
2015,05,23,17,29,18.90
2015,05,23,17,30,18.70
2015,05,23,17,31,18.50
2015,05,23,17,32,18.30
2015,05,23,17,33,18.20
2015,05,23,17,34,18.00
2015,05,23,17,35,17.90
2015,05,23,17,36,17.80
2015,05,23,17,37,17.80
2015,05,23,17,38,17.80
2015,05,23,17,39,17.70
2015,05,23,17,40,17.60
2015,05,23,17,41,17.50
2015,05,23,17,42,17.40
2015,05,23,17,43,17.40
2015,05,23,17,44,17.50
2015,05,23,17,45,17.60
2015,05,23,17,46,17.50
2015,05,23,17,47,17.40
2015,05,23,17,48,17.30
2015,05,23,17,49,17.20
2015,05,23,17,50,17.10
2015,05,23,17,51,17.10
2015,05,23,17,52,17.00
2015,05,23,17,53,16.90
2015,05,23,17,54,16.80
2015,05,23,17,55,16.80
2015,05,23,17,56,16.70
2015,05,23,17,57,16.70
2015,05,23,17,58,16.70
2015,05,23,17,59,16.70
2015,05,23,18,00,16.80
2015,05,23,18,01,16.80
2015,05,23,18,02,16.80
2015,05,23,18,03,16.80
2015,05,23,18,04,16.80
2015,05,23,18,05,16.80
2015,05,23,18,06,16.80
2015,05,23,18,07,16.80
2015,05,23,18,08,16.70
2015,05,23,18,09,16.60
2015,05,23,18,10,16.50
2015,05,23,18,11,16.50
2015,05,23,18,12,16.40
2015,05,23,18,13,16.30
2015,05,23,18,14,16.20
2015,05,23,18,15,16.20
2015,05,23,18,16,16.10
2015,05,23,18,17,16.10
2015,05,23,18,18,16.00
2015,05,23,18,19,15.90
2015,05,23,18,20,15.80
2015,05,23,18,21,15.70
2015,05,23,18,22,15.70
2015,05,23,18,23,15.70
2015,05,23,18,24,15.70
2015,05,23,18,25,15.70
2015,05,23,18,26,15.60
2015,05,23,18,27,15.60
2015,05,23,18,28,15.50
2015,05,23,18,29,15.50
2015,05,23,18,30,15.50
2015,05,23,18,31,15.40
2015,05,23,18,32,15.40
2015,05,23,18,33,15.40
2015,05,23,18,34,15.40
2015,05,23,18,35,15.30
2015,05,23,18,36,15.30
2015,05,23,18,37,15.20
2015,05,23,18,38,15.20
2015,05,23,18,39,15.10
2015,05,23,18,40,15.10
2015,05,23,18,41,15.10
2015,05,23,18,42,15.00
2015,05,23,18,43,15.00
2015,05,23,18,44,15.00
2015,05,23,18,45,15.00
2015,05,23,18,46,15.00
2015,05,23,18,47,15.00
2015,05,23,18,48,15.00
2015,05,23,18,49,15.10
2015,05,23,18,50,15.10
2015,05,23,18,51,15.20
2015,05,23,18,52,15.30
2015,05,23,18,53,15.30
2015,05,23,18,54,15.30
2015,05,23,18,55,15.30
2015,05,23,18,56,15.30
2015,05,23,18,57,15.30
2015,05,23,18,58,15.30
2015,05,23,18,59,15.20
2015,05,23,19,00,15.20
2015,05,23,19,01,15.00
2015,05,23,19,02,14.90
2015,05,23,19,03,14.80
2015,05,23,19,04,14.80
2015,05,23,19,05,14.80
2015,05,23,19,06,14.80
2015,05,23,19,07,14.70
2015,05,23,19,08,14.70
2015,05,23,19,09,14.70
2015,05,23,19,10,14.60
2015,05,23,19,11,14.60
2015,05,23,19,12,14.50
2015,05,23,19,13,14.50
2015,05,23,19,14,14.50
2015,05,23,19,15,14.50
2015,05,23,19,16,14.50
2015,05,23,19,17,14.40
2015,05,23,19,18,14.40
2015,05,23,19,19,14.40
2015,05,23,19,20,14.40
2015,05,23,19,21,14.40
2015,05,23,19,22,14.40
2015,05,23,19,23,14.40
2015,05,23,19,24,14.40
2015,05,23,19,25,14.40
2015,05,23,19,26,14.40
2015,05,23,19,27,14.50
2015,05,23,19,28,14.50
2015,05,23,19,29,14.40
2015,05,23,19,30,14.40
2015,05,23,19,31,14.40
2015,05,23,19,32,14.40
2015,05,23,19,33,14.30
2015,05,23,19,34,14.30
2015,05,23,19,35,14.20
2015,05,23,19,36,14.20
2015,05,23,19,37,14.20
2015,05,23,19,38,14.20
2015,05,23,19,39,14.10
2015,05,23,19,40,14.10
2015,05,23,19,41,14.10
2015,05,23,19,42,14.10
2015,05,23,19,43,14.00
2015,05,23,19,44,14.00
2015,05,23,19,45,14.00
2015,05,23,19,46,13.90
2015,05,23,19,47,13.90
2015,05,23,19,48,13.90
2015,05,23,19,49,13.80
2015,05,23,19,50,13.80
2015,05,23,19,51,13.80
2015,05,23,19,52,13.80
2015,05,23,19,53,13.80
2015,05,23,19,54,13.80
2015,05,23,19,55,13.80
2015,05,23,19,56,13.80
2015,05,23,19,57,13.80
2015,05,23,19,58,13.80
2015,05,23,19,59,13.80
2015,05,23,20,00,13.80
2015,05,23,20,01,13.80
2015,05,23,20,02,13.80
2015,05,23,20,03,13.80
2015,05,23,20,04,13.80
2015,05,23,20,05,13.80
2015,05,23,20,06,13.80
2015,05,23,20,07,13.80
2015,05,23,20,08,13.80
2015,05,23,20,09,13.80
2015,05,23,20,10,13.70
2015,05,23,20,11,13.70
2015,05,23,20,12,13.70
2015,05,23,20,13,13.70
2015,05,23,20,14,13.70
2015,05,23,20,15,13.70
2015,05,23,20,16,13.70
2015,05,23,20,17,13.70
2015,05,23,20,18,13.70
2015,05,23,20,19,13.70
2015,05,23,20,20,13.70
2015,05,23,20,21,13.70
2015,05,23,20,22,13.70
2015,05,23,20,23,13.70
2015,05,23,20,24,13.70
2015,05,23,20,25,13.70
2015,05,23,20,26,13.70
2015,05,23,20,27,13.70
2015,05,23,20,28,13.70
2015,05,23,20,29,13.80
2015,05,23,20,30,13.80
2015,05,23,20,31,13.80
2015,05,23,20,32,13.80
2015,05,23,20,33,13.80
2015,05,23,20,34,13.80
2015,05,23,20,35,13.80
2015,05,23,20,36,13.80
2015,05,23,20,37,13.80
2015,05,23,20,38,13.80
2015,05,23,20,39,13.80
2015,05,23,20,40,13.80
2015,05,23,20,41,13.80
2015,05,23,20,42,13.80
2015,05,23,20,43,13.80
2015,05,23,20,44,13.80
2015,05,23,20,45,13.80
2015,05,23,20,46,13.80
2015,05,23,20,47,13.80
2015,05,23,20,48,13.80
2015,05,23,20,49,13.80
2015,05,23,20,50,13.80
2015,05,23,20,51,13.80
2015,05,23,20,52,13.80
2015,05,23,20,53,13.80
2015,05,23,20,54,13.80
2015,05,23,20,55,13.80
2015,05,23,20,56,13.80
2015,05,23,20,57,13.80
2015,05,23,20,58,13.80
2015,05,23,20,59,13.80
2015,05,23,21,00,13.80
2015,05,23,21,01,13.80
2015,05,23,21,02,13.80
2015,05,23,21,03,13.80
2015,05,23,21,04,13.80
2015,05,23,21,05,13.80
2015,05,23,21,06,13.80
2015,05,23,21,07,13.80
2015,05,23,21,08,13.80
2015,05,23,21,09,13.80
2015,05,23,21,10,13.80
2015,05,23,21,11,13.80
2015,05,23,21,12,13.80
2015,05,23,21,13,13.80
2015,05,23,21,14,13.80
2015,05,23,21,15,13.80
2015,05,23,21,16,13.80
2015,05,23,21,17,13.80
2015,05,23,21,18,13.80
2015,05,23,21,19,13.80
2015,05,23,21,20,13.80
2015,05,23,21,21,13.80
2015,05,23,21,22,13.80
2015,05,23,21,23,13.80
2015,05,23,21,24,13.80
2015,05,23,21,25,13.80
2015,05,23,21,26,13.80
2015,05,23,21,27,13.80
2015,05,23,21,28,13.80
2015,05,23,21,29,13.70
2015,05,23,21,30,13.70
2015,05,23,21,31,13.70
2015,05,23,21,32,13.70
2015,05,23,21,33,13.60
2015,05,23,21,34,13.60
2015,05,23,21,35,13.60
2015,05,23,21,36,13.50
2015,05,23,21,37,13.50
2015,05,23,21,38,13.40
2015,05,23,21,39,13.40
2015,05,23,21,40,13.40
2015,05,23,21,41,13.30
2015,05,23,21,42,13.30
2015,05,23,21,43,13.30
2015,05,23,21,44,13.20
2015,05,23,21,45,13.20
2015,05,23,21,46,13.20
2015,05,23,21,47,13.20
2015,05,23,21,48,13.10
2015,05,23,21,49,13.10